Location: Brno
(49.2000°N, 16.6330°E)
Time: 18:06:57
(UTC+01:00)

ISS - Visible Passes

Search period start: 11 December 2017 00:00
Search period end: 21 December 2017 00:00
Orbit: 402 x 407 km, 51.6° (Epoch: 11 December)

Date Brightness Start Highest point End Pass type
(mag) Time Alt. Az. Time Alt. Az. Time Alt. Az.
11 Dec -3.6 16:36:15 10° WNW 16:39:31 56° N 16:42:45 10° E visible
11 Dec -3.2 18:12:48 10° WNW 18:15:48 56° SW 18:15:48 56° SW visible
12 Dec -3.8 17:20:31 10° WNW 17:23:49 85° SSW 17:25:59 20° ESE visible
12 Dec -0.8 18:57:28 10° W 18:58:40 16° WSW 18:58:40 16° WSW visible
13 Dec -3.8 16:28:15 10° WNW 16:31:33 72° NNE 16:34:50 10° E visible
13 Dec -2.2 18:04:54 10° W 18:07:52 32° SW 18:09:02 24° S visible
14 Dec -2.9 17:12:30 10° WNW 17:15:42 50° SSW 17:18:53 10° SE visible
14 Dec -0.6 18:51:09 10° SW 18:51:33 10° SW 18:51:57 10° SW visible
15 Dec -0.9 17:57:18 10° W 17:59:32 17° SW 18:01:45 10° S visible
16 Dec -1.6 17:04:35 10° W 17:07:26 27° SW 17:10:15 10° SSE visible
18 Dec -0.6 16:57:06 10° WSW 16:58:59 14° SW 17:00:50 10° S visible
